#timestamp,LO_Frequency,Hit,StdDev 
1635980415.7,286047001.9,N
1635980435.6,286047001.3,N
1635980455.4,286047004.3,Y
1635980475.2,286046999.7,P
1635980495.1,286047002.2,N
1635980496.0,286047002.2,N
1635980515.8,286047001.9,N
1635980535.7,286047003.9,Y
1635980555.5,286047000.3,P
1635980575.3,286047000.1,N
1635980595.2,286047000.6,N
1635980615.9,286047000.2,N
1635980635.7,286047002.2,Y
1635980655.6,286046999.8,P
1635980675.4,286047000.6,N
1635980695.3,286046999.8,N
1635980715.1,286047000.7,N
1635980716.0,286047000.7,N
1635980735.8,286047001.0,N
1635980755.7,286046999.9,N
1635980775.5,286047000.9,N
1635980795.3,286047000.3,N
1635980815.2,286047001.0,N
1635980835.0,286046999.7,N
1635980835.9,286046999.7,N
1635980855.8,286047002.6,Y
1635980875.6,286047000.9,P
1635980895.4,286046999.4,N
1635980915.3,286046998.8,N
1635980935.1,286046999.3,N
1635980955.8,286047000.3,N
1635980975.7,286047000.7,N
1635980995.5,286047000.0,N
1635981015.4,286046998.6,N
1635981035.2,286047000.7,N
1635981055.0,286047000.3,N
1635981055.9,286047000.3,N
1635981075.8,286047000.8,N
1635981095.6,286046999.8,N
1635981115.4,286046998.1,N
1635981135.3,286046998.9,N
1635981155.1,286046999.5,N
1635981175.9,286046999.2,N
1635981195.7,286046998.3,N
1635981215.5,286046998.7,N
1635981235.4,286046998.7,N
1635981255.2,286046998.2,N
1635981275.0,286047000.8,N
1635981275.9,286047000.8,N
1635981295.8,286046998.8,N
1635981315.6,286046999.5,N
1635981335.5,286046998.8,N
1635981355.3,286046999.5,N
1635981375.1,286046998.7,N
1635981395.9,286046998.8,N
1635981415.7,286047000.3,N
1635981435.5,286047000.2,N
1635981455.4,286047000.2,N
1635981475.2,286046998.1,N
1635981495.1,286046999.1,N
1635981496.0,286046999.1,N
1635981515.8,286046998.8,N
1635981535.6,286046999.0,N
1635981555.5,286046999.6,N
1635981575.3,286046996.8,Y
1635981595.1,286046999.3,P
1635981615.9,286046997.8,P
1635981635.7,286046997.4,P
1635981685.6,286046996.2,E
1635981695.5,286046996.7,N
1635981715.3,286047001.0,P
1635981735.2,286047000.8,N
1635981755.0,286047000.8,N
1635981755.9,286047000.8,N
1635981775.8,286047000.5,N
1635981795.6,286047000.6,N
1635981815.4,286046999.7,N
1635981835.3,286047000.5,N
1635981855.1,286047000.0,N
1635981875.8,286047002.4,N
1635981895.7,286047000.2,N
1635981915.5,286047002.1,N
1635981935.3,286046999.9,N
1635981955.2,286047000.0,N
1635981975.0,286046998.1,N
1635981975.9,286046998.1,N
1635981995.8,286046999.9,N
1635982015.6,286047000.0,N
1635982035.4,286047000.1,N
1635982055.3,286047002.5,N
1635982075.1,286047004.0,N
1635982095.9,286047001.9,N
1635982115.7,286047004.4,N
1635982135.5,286047004.4,N
1635982155.4,286047002.3,N
1635982175.2,286047004.4,N
1635982195.0,286047001.6,N
1635982195.9,286047001.6,N
1635982215.8,286047001.8,N
1635982235.6,286047003.2,N
1635982255.5,286047003.1,N
1635982275.3,286047002.9,N
1635982295.1,286047005.6,Y
1635982315.9,286047004.2,P
1635982335.7,286047003.8,N
1635982355.5,286047001.3,N
1635982375.4,286047001.6,N
1635982395.2,286047004.2,Y
1635982415.1,286046998.6,P
1635982416.0,286046998.6,N
1635982435.8,286046999.4,N
1635982455.6,286047001.1,N
1635982475.5,286047000.3,N
1635982495.3,286047002.7,N
1635982515.2,286047002.4,N
1635982535.9,286047002.8,N
1635982555.7,286047002.4,N
1635982575.6,286047001.9,N
1635982595.4,286047001.7,N
1635982615.3,286047001.7,N
1635982635.1,286047004.3,N
1635982636.0,286047004.3,N
1635982655.8,286047001.7,N
1635982675.7,286047002.5,N
1635982695.5,286047002.2,N
1635982715.3,286047002.6,N
1635982735.2,286047004.4,N
1635982755.0,286047002.7,N
1635982755.9,286047002.7,N
1635982775.8,286046999.8,N
1635982795.6,286047001.5,N
1635982815.4,286047004.2,N
1635982835.3,286047004.2,N
1635982855.1,286047004.4,N
1635982875.9,286047002.1,N
1635982895.7,286047001.8,N
1635982915.5,286047003.6,N
1635982935.4,286047003.0,N
1635982955.2,286047006.0,Y
1635982975.0,286047002.3,P
1635982975.9,286047002.3,P
1635982995.8,286047002.0,P
1635983015.6,286047001.9,Y
1635983035.5,286047000.3,P
1635983055.3,286047000.0,N
1635983075.1,286047000.2,N
1635983095.9,286047000.2,N
1635983115.7,286047000.8,N
1635983135.6,286047000.3,N
1635983155.4,286046998.1,N
1635983175.2,286047002.7,N
1635983195.1,286046999.7,N
1635983196.0,286046999.7,N
1635983215.8,286047000.2,N
1635983235.6,286047002.8,N
1635983255.5,286047001.0,N
1635983275.3,286047000.6,N
1635983295.2,286047000.5,N
1635983315.9,286047000.3,N
1635983335.7,286047002.6,N
1635983355.6,286047002.3,N
1635983375.4,286047002.0,N
1635983395.3,286047002.0,N
1635983415.1,286047002.6,N
1635983416.0,286047002.6,N
1635983435.8,286047002.3,N
1635983455.7,286047001.4,N
1635983475.5,286047003.9,Y
1635983495.3,286047003.7,P
1635983515.2,286047004.2,P
1635983535.0,286047001.4,N
1635983535.9,286047001.4,N
1635983555.8,286047002.1,N
1635983575.6,286047002.1,N
1635983595.4,286047000.2,N
1635983615.3,286047002.4,N
1635983635.1,286047000.0,N
1635983655.9,286046998.2,N
1635983675.7,286046999.0,N
1635983695.5,286047001.2,N
1635983715.4,286047000.3,N
1635983735.2,286046999.8,N
1635983755.1,286047002.4,N
1635983756.0,286047002.4,N
1635983775.8,286047002.0,N
1635983795.6,286047002.5,N
1635983815.5,286047001.3,N
1635983835.3,286047001.7,N
1635983855.1,286047004.1,N
1635983875.9,286047002.9,N
1635983895.7,286047003.3,N
1635983915.6,286047002.9,N
1635983935.4,286047006.0,Y
1635983955.2,286047001.7,P
1635983975.1,286047001.5,P
1635983976.0,286047001.5,P
1635983995.8,286047001.3,Y
